Location: Unspecified
(0.0000°N, 0.0000°E)
Time: 22:24:42
(UTC+00:00)

Courier 1B - Pass Details

Date: 12 February 2026
Orbit: 962 x 1208 km, 28.3° (Epoch: 12 March)

Event Time Altitude Azimuth Distance (km) Brightness Sun altitude
Rises 18:26:04 0° 249° (WSW) 3,827 13.2 -2.9°
Reaches altitude 10° 18:28:46 10° 252° (WSW) 2,907 12.0 -3.5°
Maximum altitude 18:35:48 59° 330° (NNW) 1,284 8.3 -5.2°
Drops below altitude 10° 18:43:17 10° 48° (NE) 3,074 9.6 -7.1°
Enters shadow 18:44:48 - 51° (NE) 3,578 9.9 -7.4°
